Location: Denia
(38.8500°N, 0.1170°E)
Time: 01:03:43
(UTC+01:00)

Envisat - Pass Details

Date: 29 January 2020
Orbit: 764 x 766 km, 98.1° (Epoch: 24 February)

Event Time Altitude Azimuth Distance (km) Brightness Sun altitude
Rises 19:17:04 0° 181° (S) 3,217 6.4 -12.0°
Reaches altitude 10° 19:19:26 10° 187° (S) 2,295 5.7 -12.4°
Maximum altitude 19:24:18 47° 261° (W) 1,007 4.1 -13.3°
Drops below altitude 10° 19:29:13 10° 335° (NNW) 2,310 5.6 -14.3°
Sets 19:31:37 0° 341° (NNW) 3,240 6.3 -14.7°
